When you browse on this site, cookies collect data to enhance your experience and personalize the content and advertising you see.
Visit our Privacy Policy to learn more. By continuing to use the site, you agree to this use of cookies and data.
  • In Österreich
  • Länderverzeichnis
  • Für 7 Tage
  • Wassertemperatur
  • Satellitenkarten
  • Wetterkarte
  • News
  • Widgets
  • user-avatar
    Anmelden

    Stündliche Wetter Ozernyy

    Heute, 16 Juli, Dienstag

    Zeit Temperatur Niederschläge Wind Luftdruck Luftfeuchtigkeit
    00:00 +13°C° 0 mm 1 m/S 745 mmHg 92%
    01:00 +13°C° 0 mm 1 m/S 745 mmHg 92%
    02:00 +12°C° 0 mm 1 m/S 746 mmHg 92%
    03:00 +12°C° 0 mm 1 m/S 746 mmHg 91%
    04:00 +12°C° 0 mm 1 m/S 745 mmHg 91%
    05:00 +12°C° 0 mm 1 m/S 745 mmHg 91%
    06:00 +14°C° 0 mm 1 m/S 745 mmHg 84%
    07:00 +16°C° 0 mm 1 m/S 745 mmHg 78%
    08:00 +18°C° 0 mm 2 m/S 745 mmHg 72%
    09:00 +20°C° 0.1 mm 2 m/S 745 mmHg 66%
    10:00 +21°C° 0.1 mm 2 m/S 745 mmHg 60%
    11:00 +23°C° 0.1 mm 2 m/S 744 mmHg 54%
    12:00 +24°C° 0.1 mm 2 m/S 744 mmHg 54%
    13:00 +24°C° 0.1 mm 2 m/S 744 mmHg 53%
    14:00 +24°C° 0.1 mm 3 m/S 743 mmHg 52%
    15:00 +24°C° 0.3 mm 3 m/S 743 mmHg 58%
    16:00 +23°C° 0.3 mm 2 m/S 743 mmHg 64%
    17:00 +23°C° 0.3 mm 2 m/S 743 mmHg 70%
    18:00 +20°C° 0.4 mm 2 m/S 743 mmHg 76%
    19:00 +18°C° 0.4 mm 2 m/S 743 mmHg 82%
    20:00 +17°C° 0.4 mm 2 m/S 743 mmHg 87%
    21:00 +16°C° 0.2 mm 2 m/S 743 mmHg 90%
    22:00 +16°C° 0.2 mm 3 m/S 743 mmHg 92%
    23:00 +14°C° 0.2 mm 3 m/S 743 mmHg 94%

    Morgen, 17 Juli, Mittwoch

    Zeit Temperatur Niederschläge Wind Luftdruck Luftfeuchtigkeit
    00:00 +13°C° 0.1 mm 3 m/S 743 mmHg 94%
    01:00 +12°C° 0.1 mm 3 m/S 743 mmHg 94%
    02:00 +12°C° 0.1 mm 3 m/S 743 mmHg 95%
    03:00 +11°C° 0 mm 3 m/S 743 mmHg 95%
    04:00 +11°C° 0 mm 3 m/S 743 mmHg 96%
    05:00 +10°C° 0 mm 2 m/S 742 mmHg 97%
    06:00 +11°C° 0 mm 3 m/S 742 mmHg 95%
    07:00 +12°C° 0 mm 3 m/S 742 mmHg 92%
    08:00 +13°C° 0 mm 3 m/S 743 mmHg 90%
    09:00 +16°C° 0.2 mm 3 m/S 742 mmHg 84%
    10:00 +17°C° 0.2 mm 3 m/S 742 mmHg 78%
    11:00 +18°C° 0.2 mm 3 m/S 742 mmHg 72%
    12:00 +18°C° 0.5 mm 4 m/S 742 mmHg 70%
    13:00 +18°C° 0.5 mm 4 m/S 742 mmHg 68%
    14:00 +19°C° 0.5 mm 4 m/S 742 mmHg 66%
    15:00 +19°C° 0.2 mm 4 m/S 742 mmHg 67%
    16:00 +19°C° 0.2 mm 3 m/S 741 mmHg 68%
    17:00 +18°C° 0.2 mm 3 m/S 741 mmHg 69%
    18:00 +17°C° 0.3 mm 2 m/S 741 mmHg 76%
    19:00 +16°C° 0.3 mm 2 m/S 741 mmHg 83%
    20:00 +14°C° 0.3 mm 1 m/S 741 mmHg 91%
    21:00 +14°C° 0 mm 1 m/S 741 mmHg 92%
    22:00 +13°C° 0 mm 1 m/S 742 mmHg 93%
    23:00 +12°C° 0 mm 1 m/S 742 mmHg 95%

    übermorgen, 18 Juli, Donnerstag

    Zeit Temperatur Niederschläge Wind Luftdruck Luftfeuchtigkeit
    00:00 +12°C° 0 mm 2 m/S 742 mmHg 95%
    01:00 +12°C° 0 mm 2 m/S 742 mmHg 96%
    02:00 +10°C° 0 mm 2 m/S 742 mmHg 97%
    03:00 +10°C° 0 mm 2 m/S 742 mmHg 97%
    04:00 +10°C° 0 mm 2 m/S 742 mmHg 98%
    05:00 +10°C° 0 mm 2 m/S 742 mmHg 98%
    06:00 +11°C° 0 mm 3 m/S 743 mmHg 97%
    07:00 +12°C° 0 mm 3 m/S 743 mmHg 95%
    08:00 +13°C° 0 mm 4 m/S 743 mmHg 93%
    09:00 +14°C° 0 mm 4 m/S 743 mmHg 90%
    10:00 +14°C° 0 mm 4 m/S 743 mmHg 87%
    11:00 +15°C° 0 mm 4 m/S 743 mmHg 84%
    12:00 +17°C° 0.2 mm 4 m/S 743 mmHg 81%
    13:00 +18°C° 0.2 mm 4 m/S 743 mmHg 79%
    14:00 +19°C° 0.2 mm 4 m/S 743 mmHg 77%
    15:00 +19°C° 0.5 mm 4 m/S 744 mmHg 79%
    16:00 +19°C° 0.5 mm 3 m/S 744 mmHg 81%
    17:00 +19°C° 0.5 mm 3 m/S 744 mmHg 82%
    18:00 +18°C° 0.3 mm 3 m/S 744 mmHg 86%
    19:00 +17°C° 0.3 mm 2 m/S 744 mmHg 90%
    20:00 +17°C° 0.3 mm 2 m/S 744 mmHg 94%
    21:00 +16°C° 0 mm 2 m/S 744 mmHg 95%
    22:00 +15°C° 0 mm 2 m/S 745 mmHg 96%
    23:00 +15°C° 0 mm 2 m/S 745 mmHg 97%

    19 Juli, Freitag

    Zeit Temperatur Niederschläge Wind Luftdruck Luftfeuchtigkeit
    00:00 +14°C° 0 mm 2 m/S 745 mmHg 97%
    01:00 +14°C° 0 mm 2 m/S 745 mmHg 97%
    02:00 +14°C° 0 mm 2 m/S 746 mmHg 97%
    03:00 +13°C° 0 mm 2 m/S 746 mmHg 97%
    04:00 +13°C° 0 mm 2 m/S 746 mmHg 97%
    05:00 +13°C° 0 mm 2 m/S 746 mmHg 97%
    06:00 +13°C° 0 mm 3 m/S 746 mmHg 91%
    07:00 +16°C° 0 mm 3 m/S 747 mmHg 86%
    08:00 +18°C° 0 mm 3 m/S 747 mmHg 81%
    09:00 +19°C° 0 mm 3 m/S 747 mmHg 72%
    10:00 +21°C° 0 mm 3 m/S 747 mmHg 63%
    11:00 +23°C° 0 mm 4 m/S 747 mmHg 54%
    12:00 +23°C° 0 mm 4 m/S 747 mmHg 53%
    13:00 +25°C° 0 mm 4 m/S 748 mmHg 52%
    14:00 +25°C° 0 mm 3 m/S 748 mmHg 51%
    15:00 +25°C° 0.2 mm 3 m/S 748 mmHg 55%
    16:00 +24°C° 0.2 mm 3 m/S 747 mmHg 59%
    17:00 +24°C° 0.2 mm 3 m/S 747 mmHg 63%
    18:00 +21°C° 0.1 mm 2 m/S 748 mmHg 70%
    19:00 +20°C° 0.1 mm 2 m/S 748 mmHg 78%
    20:00 +19°C° 0.1 mm 1 m/S 748 mmHg 86%
    21:00 +18°C° 0 mm 1 m/S 748 mmHg 87%
    22:00 +16°C° 0 mm 1 m/S 749 mmHg 89%
    23:00 +15°C° 0 mm 1 m/S 749 mmHg 91%

    20 Juli, Samstag

    Zeit Temperatur Niederschläge Wind Luftdruck Luftfeuchtigkeit
    00:00 +15°C° 0 mm 1 m/S 749 mmHg 91%
    01:00 +15°C° 0 mm 1 m/S 749 mmHg 92%
    02:00 +14°C° 0 mm 1 m/S 749 mmHg 92%
    03:00 +14°C° 0 mm 1 m/S 749 mmHg 92%
    04:00 +14°C° 0 mm 1 m/S 749 mmHg 92%
    05:00 +14°C° 0 mm 1 m/S 750 mmHg 92%
    06:00 +16°C° 0 mm 1 m/S 750 mmHg 85%
    07:00 +19°C° 0 mm 1 m/S 750 mmHg 78%
    08:00 +21°C° 0 mm 1 m/S 750 mmHg 71%
    09:00 +23°C° 0 mm 1 m/S 750 mmHg 64%
    10:00 +24°C° 0 mm 2 m/S 750 mmHg 58%
    11:00 +25°C° 0 mm 2 m/S 750 mmHg 51%
    12:00 +26°C° 0 mm 2 m/S 750 mmHg 49%
    13:00 +26°C° 0 mm 2 m/S 750 mmHg 47%
    14:00 +27°C° 0 mm 2 m/S 750 mmHg 45%
    15:00 +26°C° 0 mm 2 m/S 750 mmHg 46%
    16:00 +26°C° 0 mm 2 m/S 750 mmHg 48%
    17:00 +26°C° 0 mm 2 m/S 750 mmHg 50%
    18:00 +24°C° 0 mm 1 m/S 750 mmHg 57%
    19:00 +22°C° 0 mm 1 m/S 750 mmHg 65%
    20:00 +20°C° 0 mm 1 m/S 750 mmHg 73%
    21:00 +19°C° 0 mm 1 m/S 751 mmHg 76%
    22:00 +18°C° 0 mm 1 m/S 751 mmHg 79%
    23:00 +18°C° 0 mm 1 m/S 751 mmHg 81%

    21 Juli, Sonntag

    Zeit Temperatur Niederschläge Wind Luftdruck Luftfeuchtigkeit
    00:00 +16°C° 0 mm 1 m/S 751 mmHg 82%
    01:00 +16°C° 0 mm 1 m/S 751 mmHg 83%
    02:00 +14°C° 0 mm 0 m/S 751 mmHg 84%
    03:00 +14°C° 0 mm 0 m/S 751 mmHg 83%
    04:00 +15°C° 0 mm 1 m/S 751 mmHg 83%
    05:00 +15°C° 0 mm 1 m/S 752 mmHg 83%
    06:00 +18°C° 0 mm 1 m/S 752 mmHg 77%
    07:00 +20°C° 0 mm 1 m/S 752 mmHg 70%
    08:00 +23°C° 0 mm 1 m/S 752 mmHg 64%
    09:00 +24°C° 0 mm 1 m/S 752 mmHg 59%
    10:00 +26°C° 0 mm 1 m/S 752 mmHg 55%
    11:00 +27°C° 0 mm 1 m/S 752 mmHg 51%
    12:00 +28°C° 0 mm 1 m/S 752 mmHg 49%
    13:00 +28°C° 0 mm 1 m/S 752 mmHg 47%
    14:00 +28°C° 0 mm 1 m/S 752 mmHg 46%
    15:00 +28°C° 0.1 mm 2 m/S 752 mmHg 50%
    16:00 +27°C° 0.1 mm 2 m/S 752 mmHg 55%
    17:00 +26°C° 0.1 mm 2 m/S 752 mmHg 60%
    18:00 +25°C° 0.1 mm 2 m/S 752 mmHg 67%
    19:00 +23°C° 0.1 mm 2 m/S 752 mmHg 75%
    20:00 +21°C° 0.1 mm 1 m/S 752 mmHg 82%
    21:00 +20°C° 0 mm 1 m/S 752 mmHg 82%
    22:00 +19°C° 0 mm 1 m/S 753 mmHg 83%
    23:00 +18°C° 0 mm 1 m/S 753 mmHg 83%
    Mehr zeigen